| time (UTC) | temp C | wind direction | speed KPH | gust KPH | rain 1hr cm | rain 24hr cm | rain mn cm | humidity % | barometer mb |
| 20260507035608 | 5 | 339 | 11.3 | 19.3 | 0.00 | 0.00 | 0.00 | 89 | 1007.0 |
| 20260507035208 | 5 | 336 | 4.8 | 19.3 | 0.00 | 0.00 | 0.00 | 89 | 1007.0 |
| 20260507035009 | 5 | 334 | 9.7 | 19.3 | 0.00 | 0.00 | 0.00 | 89 | 1007.0 |
| 20260507034808 | 5 | 319 | 9.7 | 19.3 | 0.00 | 0.00 | 0.00 | 89 | 1007.0 |
| 20260507034408 | 5 | 317 | 6.4 | 17.7 | 0.00 | 0.00 | 0.00 | 89 | 1007.0 |
| 20260507034009 | 5 | 328 | 9.7 | 17.7 | 0.00 | 0.00 | 0.00 | 89 | 1007.0 |
| 20260507033808 | 5 | 331 | 9.7 | 17.7 | 0.00 | 0.00 | 0.00 | 88 | 1007.0 |
| 20260507033609 | 6 | 325 | 6.4 | 19.3 | 0.00 | 0.00 | 0.00 | 88 | 1007.0 |
| 20260507033208 | 6 | 323 | 9.7 | 19.3 | 0.00 | 0.00 | 0.00 | 88 | 1007.0 |
| 20260507033009 | 6 | 324 | 11.3 | 19.3 | 0.00 | 0.00 | 0.00 | 88 | 1007.0 |
| 20260507032808 | 6 | 316 | 9.7 | 19.3 | 0.00 | 0.00 | 0.00 | 88 | 1007.0 |
| 20260507032608 | 6 | 319 | 6.4 | 17.7 | 0.00 | 0.00 | 0.00 | 88 | 1007.0 |
| 20260507032410 | 6 | 334 | 6.4 | 17.7 | 0.00 | 0.00 | 0.00 | 88 | 1007.0 |
| 20260507032008 | 6 | 326 | 6.4 | 19.3 | 0.00 | 0.00 | 0.00 | 88 | 1007.0 |
| 20260507031808 | 6 | 326 | 9.7 | 19.3 | 0.00 | 0.00 | 0.00 | 88 | 1007.0 |
| 20260507031609 | 6 | 318 | 6.4 | 19.3 | 0.00 | 0.00 | 0.00 | 88 | 1007.0 |
| 20260507031408 | 6 | 319 | 8.0 | 19.3 | 0.00 | 0.00 | 0.00 | 88 | 1007.0 |
| 20260507031208 | 6 | 316 | 8.0 | 14.5 | 0.00 | 0.00 | 0.00 | 87 | 1007.0 |
| 20260507031008 | 6 | 309 | 6.4 | 14.5 | 0.00 | 0.00 | 0.00 | 87 | 1007.0 |
| 20260507030808 | 6 | 326 | 6.4 | 14.5 | 0.00 | 0.00 | 0.00 | 87 | 1007.0 |
| 20260507030608 | 6 | 328 | 8.0 | 14.5 | 0.00 | 0.00 | 0.00 | 87 | 1007.0 |
| 20260507030009 | 6 | 337 | 8.0 | 12.9 | 0.00 | 0.00 | 0.00 | 87 | 1007.0 |
| 20260507025808 | 6 | 334 | 6.4 | 12.9 | 0.00 | 0.00 | 0.00 | 87 | 1007.0 |
| 20260507025608 | 6 | 335 | 0.0 | 12.9 | 0.00 | 0.00 | 0.00 | 87 | 1007.0 |
| 20260507025409 | 6 | 336 | 9.7 | 17.7 | 0.00 | 0.00 | 0.00 | 87 | 1007.0 |
| 20260507025008 | 6 | 332 | 6.4 | 17.7 | 0.00 | 0.00 | 0.00 | 87 | 1007.0 |
| 20260507024610 | 6 | 336 | 11.3 | 17.7 | 0.00 | 0.00 | 0.00 | 86 | 1007.0 |
| 20260507024408 | 6 | 337 | 4.8 | 16.1 | 0.00 | 0.00 | 0.00 | 86 | 1007.0 |
| 20260507023609 | 6 | 339 | 9.7 | 16.1 | 0.00 | 0.00 | 0.00 | 86 | 1007.0 |
| 20260507023408 | 6 | 335 | 8.0 | 16.1 | 0.00 | 0.00 | 0.00 | 86 | 1007.0 |
| 20260507023208 | 6 | 325 | 4.8 | 16.1 | 0.00 | 0.00 | 0.00 | 86 | 1007.0 |
| 20260507023009 | 6 | 339 | 8.0 | 14.5 | 0.00 | 0.00 | 0.00 | 86 | 1007.0 |
| 20260507022808 | 6 | 340 | 6.4 | 14.5 | 0.00 | 0.00 | 0.00 | 85 | 1007.0 |
| 20260507022609 | 6 | 339 | 6.4 | 14.5 | 0.00 | 0.00 | 0.00 | 85 | 1007.0 |
| 20260507022410 | 6 | 344 | 4.8 | 14.5 | 0.00 | 0.00 | 0.00 | 85 | 1007.0 |
| 20260507022008 | 6 | 340 | 4.8 | 14.5 | 0.00 | 0.00 | 0.00 | 85 | 1007.0 |
| 20260507021809 | 6 | 340 | 6.4 | 14.5 | 0.00 | 0.00 | 0.00 | 85 | 1007.0 |
| 20260507021608 | 6 | 337 | 11.3 | 14.5 | 0.00 | 0.00 | 0.00 | 85 | 1007.0 |
| 20260507021008 | 7 | 287 | 4.8 | 11.3 | 0.00 | 0.00 | 0.00 | 85 | 1007.0 |
| 20260507020409 | 7 | 339 | 4.8 | 17.7 | 0.00 | 0.00 | 0.00 | 84 | 1007.0 |
| 20260507020208 | 7 | 339 | 4.8 | 17.7 | 0.00 | 0.00 | 0.00 | 84 | 1007.0 |
| 20260507020009 | 7 | 335 | 6.4 | 17.7 | 0.00 | 0.00 | 0.00 | 84 | 1007.0 |
| 20260507015809 | 7 | 342 | 6.4 | 17.7 | 0.00 | 0.00 | 0.00 | 84 | 1007.0 |
| 20260507015608 | 7 | 325 | 6.4 | 14.5 | 0.00 | 0.00 | 0.00 | 83 | 1007.0 |
| 20260507015408 | 7 | 314 | 8.0 | 16.1 | 0.00 | 0.00 | 0.00 | 83 | 1007.0 |
| 20260507015208 | 7 | 298 | 4.8 | 16.1 | 0.00 | 0.00 | 0.00 | 83 | 1007.0 |
| 20260507015009 | 7 | 301 | 4.8 | 16.1 | 0.00 | 0.00 | 0.00 | 83 | 1007.0 |
| 20260507014809 | 7 | 303 | 11.3 | 16.1 | 0.00 | 0.00 | 0.00 | 83 | 1007.0 |
| 20260507014608 | 7 | 300 | 9.7 | 16.1 | 0.00 | 0.00 | 0.00 | 83 | 1007.0 |
| 20260507014409 | 7 | 302 | 6.4 | 12.9 | 0.00 | 0.00 | 0.00 | 82 | 1006.0 |
| 20260507014209 | 7 | 315 | 6.4 | 12.9 | 0.00 | 0.00 | 0.00 | 83 | 1006.0 |
| 20260507014008 | 7 | 320 | 6.4 | 11.3 | 0.00 | 0.00 | 0.00 | 82 | 1006.0 |
| 20260507013808 | 7 | 322 | 6.4 | 11.3 | 0.00 | 0.00 | 0.00 | 82 | 1006.0 |
| 20260507013609 | 7 | 329 | 6.4 | 11.3 | 0.00 | 0.00 | 0.00 | 82 | 1006.0 |
| 20260507013408 | 7 | 318 | 6.4 | 11.3 | 0.00 | 0.00 | 0.00 | 82 | 1006.0 |
| 20260507013209 | 7 | 315 | 4.8 | 11.3 | 0.00 | 0.00 | 0.00 | 83 | 1006.0 |
| 20260507013008 | 7 | 304 | 4.8 | 11.3 | 0.00 | 0.00 | 0.00 | 82 | 1006.0 |
| 20260507012808 | 7 | 328 | 4.8 | 14.5 | 0.00 | 0.00 | 0.00 | 82 | 1007.0 |
| 20260507012608 | 7 | 328 | 8.0 | 14.5 | 0.00 | 0.00 | 0.00 | 82 | 1007.0 |
| 20260507012408 | 7 | 335 | 4.8 | 14.5 | 0.00 | 0.00 | 0.00 | 83 | 1007.0 |
| 20260507012008 | 7 | 337 | 11.3 | 14.5 | 0.00 | 0.00 | 0.00 | 82 | 1007.0 |
| 20260507011809 | 7 | 325 | 6.4 | 12.9 | 0.00 | 0.00 | 0.00 | 82 | 1007.0 |
| 20260507011408 | 7 | 322 | 8.0 | 12.9 | 0.00 | 0.00 | 0.00 | 82 | 1006.0 |
| 20260507011208 | 7 | 10 | 4.8 | 12.9 | 0.00 | 0.00 | 0.00 | 82 | 1006.0 |
| 20260507011008 | 7 | 341 | 8.0 | 14.5 | 0.00 | 0.00 | 0.00 | 82 | 1006.0 |
| 20260507010809 | 7 | 342 | 0.0 | 14.5 | 0.00 | 0.00 | 0.00 | 82 | 1006.0 |
| 20260507010608 | 7 | 327 | 4.8 | 14.5 | 0.00 | 0.00 | 0.00 | 82 | 1006.0 |
| 20260507010408 | 7 | 332 | 6.4 | 14.5 | 0.00 | 0.00 | 0.00 | 82 | 1006.0 |
| 20260507010209 | 7 | 337 | 6.4 | 16.1 | 0.00 | 0.00 | 0.00 | 82 | 1006.0 |
| 20260507010008 | 7 | 346 | 4.8 | 16.1 | 0.00 | 0.00 | 0.00 | 83 | 1006.0 |
| 20260507005409 | 7 | 345 | 9.7 | 16.1 | 0.00 | 0.00 | 0.00 | 82 | 1006.0 |
| 20260507005208 | 7 | 337 | 4.8 | 17.7 | 0.00 | 0.00 | 0.00 | 82 | 1006.0 |
| 20260507005009 | 7 | 327 | 6.4 | 17.7 | 0.00 | 0.00 | 0.00 | 82 | 1006.0 |
| 20260507004808 | 7 | 329 | 8.0 | 22.5 | 0.00 | 0.00 | 0.00 | 82 | 1006.0 |
| 20260507004608 | 7 | 328 | 9.7 | 22.5 | 0.00 | 0.00 | 0.00 | 82 | 1006.0 |
| 20260507004408 | 7 | 325 | 11.3 | 22.5 | 0.00 | 0.00 | 0.00 | 82 | 1006.0 |
| 20260507004209 | 7 | 323 | 9.7 | 22.5 | 0.00 | 0.00 | 0.00 | 82 | 1006.0 |
| 20260507004008 | 7 | 332 | 11.3 | 22.5 | 0.00 | 0.00 | 0.00 | 82 | 1006.0 |
| 20260507003808 | 7 | 319 | 6.4 | 16.1 | 0.00 | 0.00 | 0.00 | 82 | 1006.0 |
| 20260507003608 | 7 | 333 | 6.4 | 17.7 | 0.00 | 0.00 | 0.00 | 82 | 1006.0 |
| 20260507003409 | 7 | 340 | 9.7 | 17.7 | 0.00 | 0.00 | 0.00 | 82 | 1006.0 |
| 20260507003208 | 7 | 346 | 9.7 | 17.7 | 0.00 | 0.00 | 0.00 | 82 | 1006.0 |
| 20260507003008 | 7 | 348 | 9.7 | 17.7 | 0.00 | 0.00 | 0.00 | 82 | 1006.0 |
| 20260507002809 | 7 | 349 | 8.0 | 17.7 | 0.00 | 0.00 | 0.00 | 82 | 1006.0 |
| 20260507002608 | 7 | 348 | 8.0 | 17.7 | 0.00 | 0.00 | 0.00 | 82 | 1006.0 |
| 20260507002408 | 7 | 337 | 8.0 | 17.7 | 0.00 | 0.00 | 0.00 | 82 | 1006.0 |
| 20260507002210 | 7 | 338 | 9.7 | 17.7 | 0.00 | 0.00 | 0.00 | 82 | 1006.0 |
| 20260507002009 | 7 | 329 | 6.4 | 14.5 | 0.00 | 0.00 | 0.00 | 82 | 1006.0 |
| 20260507001808 | 7 | 322 | 11.3 | 16.1 | 0.00 | 0.00 | 0.00 | 82 | 1006.0 |
| 20260507001608 | 7 | 321 | 8.0 | 16.1 | 0.00 | 0.00 | 0.00 | 82 | 1006.0 |
| 20260507001409 | 7 | 328 | 9.7 | 16.1 | 0.00 | 0.00 | 0.00 | 82 | 1006.0 |
| 20260507001209 | 7 | 324 | 6.4 | 17.7 | 0.00 | 0.00 | 0.00 | 82 | 1006.0 |
| 20260507001008 | 7 | 323 | 6.4 | 17.7 | 0.00 | 0.00 | 0.00 | 82 | 1006.0 |
| 20260507000608 | 7 | 325 | 9.7 | 17.7 | 0.00 | 0.00 | 0.00 | 82 | 1006.0 |
| 20260507000409 | 7 | 320 | 9.7 | 17.7 | 0.00 | 0.00 | 0.00 | 82 | 1006.0 |
| 20260507000008 | 7 | 324 | 8.0 | 17.7 | 0.00 | 0.00 | 0.00 | 81 | 1006.0 |
| 20260506235810 | 7 | 320 | 6.4 | 17.7 | 0.00 | 0.00 | 0.00 | 81 | 1006.0 |
| 20260506235408 | 7 | 332 | 11.3 | 17.7 | 0.00 | 0.00 | 0.00 | 82 | 1006.0 |
| 20260506235209 | 7 | 331 | 6.4 | 16.1 | 0.00 | 0.00 | 0.00 | 82 | 1006.0 |
| 20260506234408 | 7 | 330 | 8.0 | 17.7 | 0.00 | 0.00 | 0.00 | 81 | 1006.0 |
| 20260506234208 | 7 | 335 | 8.0 | 17.7 | 0.00 | 0.00 | 0.00 | 81 | 1006.0 |
| 20260506234009 | 7 | 349 | 6.4 | 17.7 | 0.00 | 0.00 | 0.00 | 82 | 1006.0 |
| 20260506233409 | 7 | 345 | 6.4 | 16.1 | 0.00 | 0.00 | 0.00 | 81 | 1006.0 |
| 20260506233208 | 7 | 339 | 9.7 | 16.1 | 0.00 | 0.00 | 0.00 | 81 | 1006.0 |
| 20260506233008 | 7 | 343 | 8.0 | 16.1 | 0.00 | 0.00 | 0.00 | 81 | 1006.0 |
| 20260506232809 | 7 | 345 | 4.8 | 16.1 | 0.00 | 0.00 | 0.00 | 81 | 1006.0 |
| 20260506232608 | 7 | 344 | 0.0 | 16.1 | 0.00 | 0.00 | 0.00 | 81 | 1006.0 |
| 20260506232408 | 7 | 346 | 11.3 | 16.1 | 0.00 | 0.00 | 0.00 | 81 | 1006.0 |
| 20260506232208 | 7 | 340 | 6.4 | 16.1 | 0.00 | 0.00 | 0.00 | 81 | 1006.0 |
| 20260506232009 | 7 | 325 | 6.4 | 16.1 | 0.00 | 0.00 | 0.00 | 81 | 1006.0 |
| 20260506231809 | 7 | 323 | 4.8 | 11.3 | 0.00 | 0.00 | 0.00 | 82 | 1006.0 |
| 20260506231609 | 7 | 332 | 8.0 | 12.9 | 0.00 | 0.00 | 0.00 | 82 | 1006.0 |
| 20260506231408 | 7 | 330 | 8.0 | 12.9 | 0.00 | 0.00 | 0.00 | 82 | 1006.0 |
| 20260506231209 | 7 | 350 | 6.4 | 16.1 | 0.00 | 0.00 | 0.00 | 82 | 1006.0 |
| 20260506231008 | 7 | 353 | 4.8 | 16.1 | 0.00 | 0.00 | 0.00 | 82 | 1006.0 |
| 20260506230808 | 7 | 352 | 8.0 | 16.1 | 0.00 | 0.00 | 0.00 | 82 | 1006.0 |
| 20260506230209 | 7 | 348 | 9.7 | 14.5 | 0.00 | 0.00 | 0.00 | 81 | 1006.0 |
| 20260506230008 | 7 | 332 | 0.0 | 14.5 | 0.00 | 0.00 | 0.00 | 81 | 1006.0 |
| 20260506225809 | 7 | 324 | 11.3 | 14.5 | 0.00 | 0.00 | 0.00 | 81 | 1006.0 |
| 20260506225609 | 7 | 318 | 6.4 | 12.9 | 0.00 | 0.00 | 0.00 | 81 | 1006.0 |
| 20260506225408 | 7 | 330 | 6.4 | 12.9 | 0.00 | 0.00 | 0.00 | 81 | 1006.0 |
| 20260506225208 | 7 | 332 | 6.4 | 12.9 | 0.00 | 0.00 | 0.00 | 81 | 1006.0 |
| 20260506225008 | 7 | 339 | 9.7 | 12.9 | 0.00 | 0.00 | 0.00 | 81 | 1006.0 |
| 20260506224809 | 7 | 343 | 6.4 | 12.9 | 0.00 | 0.00 | 0.00 | 81 | 1006.0 |
| 20260506224609 | 7 | 349 | 6.4 | 11.3 | 0.00 | 0.00 | 0.00 | 81 | 1006.0 |
| 20260506224408 | 7 | 340 | 4.8 | 9.7 | 0.00 | 0.00 | 0.00 | 82 | 1006.0 |
| 20260506224209 | 7 | 350 | 6.4 | 11.3 | 0.00 | 0.00 | 0.00 | 82 | 1006.0 |
| 20260506224009 | 7 | 357 | 0.0 | 11.3 | 0.00 | 0.00 | 0.00 | 82 | 1006.0 |
| 20260506223808 | 7 | 355 | 4.8 | 12.9 | 0.00 | 0.00 | 0.00 | 82 | 1006.0 |
| 20260506223608 | 7 | 349 | 4.8 | 12.9 | 0.00 | 0.00 | 0.00 | 81 | 1006.0 |
| 20260506223409 | 7 | 346 | 9.7 | 12.9 | 0.00 | 0.00 | 0.00 | 81 | 1006.0 |
| 20260506223208 | 7 | 331 | 9.7 | 12.9 | 0.00 | 0.00 | 0.00 | 81 | 1006.0 |
| 20260506223008 | 7 | 322 | 4.8 | 16.1 | 0.00 | 0.00 | 0.00 | 82 | 1006.0 |
| 20260506222809 | 7 | 325 | 6.4 | 16.1 | 0.00 | 0.00 | 0.00 | 82 | 1006.0 |
| 20260506222608 | 7 | 334 | 6.4 | 16.1 | 0.00 | 0.00 | 0.00 | 82 | 1006.0 |
| 20260506222409 | 7 | 336 | 4.8 | 16.1 | 0.00 | 0.00 | 0.00 | 82 | 1006.0 |
| 20260506222208 | 7 | 331 | 8.0 | 16.1 | 0.00 | 0.00 | 0.00 | 82 | 1006.0 |
| 20260506222010 | 7 | 317 | 6.4 | 12.9 | 0.00 | 0.00 | 0.00 | 82 | 1006.0 |
| 20260506221809 | 7 | 333 | 6.4 | 16.1 | 0.00 | 0.00 | 0.00 | 82 | 1006.0 |
| 20260506221208 | 7 | 347 | 4.8 | 16.1 | 0.00 | 0.00 | 0.00 | 82 | 1006.0 |
| 20260506221009 | 7 | 348 | 9.7 | 16.1 | 0.00 | 0.00 | 0.00 | 82 | 1006.0 |
| 20260506220808 | 7 | 345 | 6.4 | 14.5 | 0.00 | 0.00 | 0.00 | 82 | 1006.0 |
| 20260506220408 | 7 | 354 | 6.4 | 16.1 | 0.00 | 0.00 | 0.00 | 83 | 1006.0 |
| 20260506220209 | 7 | 355 | 11.3 | 16.1 | 0.00 | 0.00 | 0.00 | 83 | 1006.0 |
| 20260506215808 | 7 | 356 | 12.9 | 16.1 | 0.00 | 0.00 | 0.00 | 82 | 1006.0 |
| 20260506215609 | 8 | 354 | 6.4 | 14.5 | 0.00 | 0.00 | 0.00 | 82 | 1006.0 |
| 20260506215409 | 8 | 353 | 6.4 | 14.5 | 0.00 | 0.00 | 0.00 | 82 | 1006.0 |
| 20260506215208 | 8 | 343 | 9.7 | 14.5 | 0.00 | 0.00 | 0.00 | 82 | 1006.0 |
| 20260506215008 | 8 | 349 | 8.0 | 12.9 | 0.00 | 0.00 | 0.00 | 82 | 1006.0 |
| 20260506214810 | 8 | 330 | 6.4 | 9.7 | 0.00 | 0.00 | 0.00 | 82 | 1006.0 |
| 20260506214609 | 8 | 325 | 4.8 | 9.7 | 0.00 | 0.00 | 0.00 | 82 | 1006.0 |
| 20260506214408 | 8 | 341 | 4.8 | 9.7 | 0.00 | 0.00 | 0.00 | 82 | 1006.0 |
| 20260506214208 | 8 | 346 | 0.0 | 9.7 | 0.00 | 0.00 | 0.00 | 82 | 1006.0 |
| 20260506213810 | 8 | 341 | 6.4 | 14.5 | 0.00 | 0.00 | 0.00 | 83 | 1006.0 |
| 20260506213608 | 8 | 347 | 6.4 | 16.1 | 0.00 | 0.00 | 0.00 | 83 | 1006.0 |
| 20260506213409 | 8 | 353 | 6.4 | 16.1 | 0.00 | 0.00 | 0.00 | 83 | 1006.0 |
| 20260506213208 | 7 | 1 | 0.0 | 19.3 | 0.00 | 0.00 | 0.00 | 83 | 1006.0 |
| 20260506213008 | 7 | 358 | 11.3 | 19.3 | 0.00 | 0.00 | 0.00 | 83 | 1006.0 |
| 20260506212409 | 7 | 5 | 11.3 | 19.3 | 0.00 | 0.00 | 0.00 | 83 | 1006.0 |
| 20260506212210 | 7 | 3 | 6.4 | 14.5 | 0.00 | 0.00 | 0.00 | 83 | 1006.0 |
| 20260506212009 | 7 | 8 | 9.7 | 14.5 | 0.00 | 0.00 | 0.00 | 82 | 1006.0 |
| 20260506211808 | 8 | 8 | 6.4 | 16.1 | 0.00 | 0.00 | 0.00 | 82 | 1006.0 |
| 20260506210809 | 8 | 343 | 0.0 | 12.9 | 0.00 | 0.00 | 0.00 | 81 | 1005.0 |
| 20260506210608 | 8 | 343 | 4.8 | 14.5 | 0.00 | 0.00 | 0.00 | 81 | 1005.0 |
| 20260506210409 | 8 | 347 | 8.0 | 14.5 | 0.00 | 0.00 | 0.00 | 81 | 1005.0 |
| 20260506210208 | 8 | 343 | 6.4 | 14.5 | 0.00 | 0.00 | 0.00 | 81 | 1005.0 |
| 20260506210009 | 8 | 339 | 6.4 | 16.1 | 0.00 | 0.00 | 0.00 | 81 | 1005.0 |
| 20260506205809 | 8 | 342 | 8.0 | 17.7 | 0.00 | 0.00 | 0.00 | 80 | 1005.0 |
| 20260506205608 | 8 | 339 | 8.0 | 17.7 | 0.00 | 0.00 | 0.00 | 80 | 1005.0 |
| 20260506205209 | 8 | 329 | 9.7 | 17.7 | 0.00 | 0.00 | 0.00 | 80 | 1005.0 |
| 20260506205009 | 8 | 330 | 11.3 | 17.7 | 0.00 | 0.00 | 0.00 | 80 | 1005.0 |
| 20260506204809 | 8 | 326 | 6.4 | 14.5 | 0.00 | 0.00 | 0.00 | 81 | 1005.0 |
| 20260506204608 | 8 | 329 | 6.4 | 14.5 | 0.00 | 0.00 | 0.00 | 81 | 1005.0 |
| 20260506204409 | 8 | 337 | 6.4 | 19.3 | 0.00 | 0.00 | 0.00 | 81 | 1005.0 |
| 20260506204208 | 8 | 320 | 8.0 | 19.3 | 0.00 | 0.00 | 0.00 | 81 | 1005.0 |
| 20260506203408 | 8 | 342 | 8.0 | 20.9 | 0.00 | 0.00 | 0.00 | 82 | 1005.0 |
| 20260506202809 | 8 | 346 | 11.3 | 17.7 | 0.00 | 0.00 | 0.00 | 80 | 1005.0 |
| 20260506202609 | 8 | 345 | 11.3 | 17.7 | 0.00 | 0.00 | 0.00 | 80 | 1005.0 |
| 20260506202008 | 8 | 345 | 8.0 | 16.1 | 0.00 | 0.00 | 0.00 | 79 | 1005.0 |
| 20260506201609 | 8 | 340 | 9.7 | 16.1 | 0.00 | 0.00 | 0.00 | 78 | 1005.0 |
| 20260506201409 | 8 | 331 | 6.4 | 14.5 | 0.00 | 0.00 | 0.00 | 78 | 1005.0 |
| 20260506201008 | 8 | 301 | 6.4 | 14.5 | 0.00 | 0.00 | 0.00 | 78 | 1005.0 |
| 20260506200809 | 8 | 306 | 8.0 | 14.5 | 0.00 | 0.00 | 0.00 | 78 | 1005.0 |
| 20260506200608 | 8 | 309 | 6.4 | 14.5 | 0.00 | 0.00 | 0.00 | 79 | 1005.0 |
| 20260506200408 | 9 | 308 | 6.4 | 12.9 | 0.00 | 0.00 | 0.00 | 79 | 1005.0 |
| 20260506200209 | 8 | 324 | 6.4 | 17.7 | 0.00 | 0.00 | 0.00 | 79 | 1005.0 |
| 20260506200008 | 8 | 324 | 9.7 | 17.7 | 0.00 | 0.00 | 0.00 | 79 | 1005.0 |
| 20260506195809 | 8 | 321 | 6.4 | 17.7 | 0.00 | 0.00 | 0.00 | 79 | 1005.0 |
| 20260506195608 | 8 | 324 | 6.4 | 19.3 | 0.00 | 0.00 | 0.00 | 79 | 1005.0 |
| 20260506195009 | 8 | 338 | 9.7 | 19.3 | 0.00 | 0.00 | 0.00 | 79 | 1005.0 |
| 20260506194810 | 8 | 3 | 8.0 | 19.3 | 0.00 | 0.00 | 0.00 | 79 | 1005.0 |
| 20260506194609 | 9 | 3 | 4.8 | 12.9 | 0.00 | 0.00 | 0.00 | 79 | 1005.0 |
| 20260506194408 | 8 | 353 | 9.7 | 14.5 | 0.00 | 0.00 | 0.00 | 79 | 1005.0 |
| 20260506194208 | 8 | 345 | 9.7 | 14.5 | 0.00 | 0.00 | 0.00 | 79 | 1005.0 |
| 20260506194009 | 9 | 340 | 6.4 | 16.1 | 0.00 | 0.00 | 0.00 | 79 | 1005.0 |
| 20260506193808 | 9 | 317 | 8.0 | 19.3 | 0.00 | 0.00 | 0.00 | 79 | 1005.0 |
| 20260506193609 | 9 | 308 | 9.7 | 19.3 | 0.00 | 0.00 | 0.00 | 78 | 1005.0 |
| 20260506192808 | 9 | 295 | 6.4 | 22.5 | 0.00 | 0.00 | 0.00 | 79 | 1005.0 |
| 20260506192608 | 9 | 313 | 6.4 | 22.5 | 0.00 | 0.00 | 0.00 | 79 | 1005.0 |
| 20260506192408 | 9 | 315 | 9.7 | 22.5 | 0.00 | 0.00 | 0.00 | 79 | 1005.0 |
| 20260506192209 | 9 | 317 | 9.7 | 22.5 | 0.00 | 0.00 | 0.00 | 79 | 1005.0 |
| 20260506192008 | 9 | 319 | 11.3 | 22.5 | 0.00 | 0.00 | 0.00 | 79 | 1005.0 |
| 20260506191808 | 9 | 317 | 11.3 | 19.3 | 0.00 | 0.00 | 0.00 | 78 | 1005.0 |
| 20260506191609 | 9 | 309 | 12.9 | 20.9 | 0.00 | 0.00 | 0.00 | 78 | 1005.0 |
| 20260506191408 | 9 | 311 | 11.3 | 20.9 | 0.00 | 0.00 | 0.00 | 78 | 1005.0 |
| 20260506191209 | 10 | 307 | 11.3 | 20.9 | 0.00 | 0.00 | 0.00 | 77 | 1005.0 |
| 20260506191010 | 10 | 300 | 11.3 | 20.9 | 0.00 | 0.00 | 0.00 | 77 | 1005.0 |
| 20260506190809 | 10 | 314 | 12.9 | 24.1 | 0.00 | 0.00 | 0.00 | 76 | 1005.0 |
| 20260506190608 | 10 | 325 | 11.3 | 24.1 | 0.00 | 0.00 | 0.00 | 77 | 1005.0 |
| 20260506190408 | 10 | 327 | 6.4 | 24.1 | 0.00 | 0.00 | 0.00 | 77 | 1005.0 |
| 20260506190208 | 10 | 336 | 8.0 | 24.1 | 0.00 | 0.00 | 0.00 | 77 | 1005.0 |
| 20260506190009 | 10 | 343 | 9.7 | 24.1 | 0.00 | 0.00 | 0.00 | 76 | 1005.0 |
| 20260506185808 | 10 | 337 | 11.3 | 20.9 | 0.00 | 0.00 | 0.00 | 76 | 1005.0 |
| 20260506185608 | 10 | 329 | 12.9 | 20.9 | 0.00 | 0.00 | 0.00 | 75 | 1005.0 |
| 20260506185410 | 10 | 337 | 14.5 | 20.9 | 0.00 | 0.00 | 0.00 | 75 | 1005.0 |
| 20260506185208 | 10 | 313 | 8.0 | 16.1 | 0.00 | 0.00 | 0.00 | 75 | 1005.0 |
| 20260506185008 | 10 | 316 | 9.7 | 16.1 | 0.00 | 0.00 | 0.00 | 75 | 1005.0 |
| 20260506184809 | 10 | 327 | 6.4 | 14.5 | 0.00 | 0.00 | 0.00 | 75 | 1005.0 |
| 20260506184609 | 10 | 334 | 6.4 | 16.1 | 0.00 | 0.00 | 0.00 | 75 | 1005.0 |
| 20260506184409 | 10 | 329 | 6.4 | 16.1 | 0.00 | 0.00 | 0.00 | 75 | 1005.0 |
| 20260506184208 | 10 | 327 | 9.7 | 16.1 | 0.00 | 0.00 | 0.00 | 74 | 1005.0 |
| 20260506184009 | 10 | 324 | 8.0 | 19.3 | 0.00 | 0.00 | 0.00 | 75 | 1005.0 |
| 20260506183808 | 10 | 313 | 9.7 | 19.3 | 0.00 | 0.00 | 0.00 | 74 | 1005.0 |
| 20260506183608 | 10 | 311 | 8.0 | 19.3 | 0.00 | 0.00 | 0.00 | 74 | 1005.0 |
| 20260506183409 | 10 | 299 | 6.4 | 19.3 | 0.00 | 0.00 | 0.00 | 73 | 1005.0 |
| 20260506182808 | 10 | 268 | 6.4 | 16.1 | 0.00 | 0.00 | 0.00 | 73 | 1004.0 |
| 20260506182608 | 10 | 277 | 6.4 | 16.1 | 0.00 | 0.00 | 0.00 | 73 | 1004.0 |
| 20260506182410 | 10 | 299 | 6.4 | 19.3 | 0.00 | 0.00 | 0.00 | 73 | 1004.0 |
| 20260506182209 | 11 | 312 | 8.0 | 19.3 | 0.00 | 0.00 | 0.00 | 73 | 1004.0 |
| 20260506182008 | 11 | 310 | 8.0 | 19.3 | 0.00 | 0.00 | 0.00 | 73 | 1004.0 |
| 20260506181808 | 11 | 315 | 11.3 | 20.9 | 0.00 | 0.00 | 0.00 | 72 | 1004.0 |
| 20260506181609 | 11 | 316 | 11.3 | 20.9 | 0.00 | 0.00 | 0.00 | 73 | 1004.0 |
| 20260506181409 | 11 | 320 | 8.0 | 20.9 | 0.00 | 0.00 | 0.00 | 73 | 1004.0 |
| 20260506181209 | 11 | 313 | 8.0 | 20.9 | 0.00 | 0.00 | 0.00 | 73 | 1004.0 |
| 20260506181008 | 11 | 321 | 9.7 | 20.9 | 0.00 | 0.00 | 0.00 | 73 | 1004.0 |
| 20260506180809 | 11 | 330 | 14.5 | 20.9 | 0.00 | 0.00 | 0.00 | 73 | 1004.0 |
| 20260506180609 | 11 | 315 | 12.9 | 19.3 | 0.00 | 0.00 | 0.00 | 72 | 1004.0 |
| 20260506180410 | 11 | 293 | 6.4 | 17.7 | 0.00 | 0.00 | 0.00 | 72 | 1004.0 |
| 20260506180209 | 11 | 297 | 6.4 | 17.7 | 0.00 | 0.00 | 0.00 | 72 | 1004.0 |
| 20260506180009 | 11 | 302 | 6.4 | 12.9 | 0.00 | 0.00 | 0.00 | 71 | 1004.0 |
| 20260506175808 | 11 | 283 | 8.0 | 17.7 | 0.00 | 0.00 | 0.00 | 71 | 1004.0 |
| 20260506175608 | 11 | 307 | 6.4 | 17.7 | 0.00 | 0.00 | 0.00 | 71 | 1004.0 |
| 20260506175210 | 11 | 315 | 6.4 | 17.7 | 0.00 | 0.00 | 0.00 | 71 | 1004.0 |
| 20260506175008 | 11 | 314 | 6.4 | 19.3 | 0.00 | 0.00 | 0.00 | 70 | 1004.0 |
| 20260506174809 | 11 | 316 | 11.3 | 19.3 | 0.00 | 0.00 | 0.00 | 70 | 1004.0 |
| 20260506174609 | 12 | 319 | 6.4 | 19.3 | 0.00 | 0.00 | 0.00 | 70 | 1004.0 |
| 20260506174409 | 12 | 327 | 8.0 | 19.3 | 0.00 | 0.00 | 0.00 | 71 | 1004.0 |
| 20260506174209 | 12 | 324 | 11.3 | 19.3 | 0.00 | 0.00 | 0.00 | 71 | 1004.0 |
| 20260506174010 | 12 | 324 | 8.0 | 20.9 | 0.00 | 0.00 | 0.00 | 70 | 1004.0 |
| 20260506173608 | 12 | 321 | 6.4 | 20.9 | 0.00 | 0.00 | 0.00 | 69 | 1004.0 |
| 20260506173009 | 12 | 299 | 9.7 | 14.5 | 0.00 | 0.00 | 0.00 | 66 | 1004.0 |
| 20260506172808 | 12 | 300 | 6.4 | 16.1 | 0.00 | 0.00 | 0.00 | 65 | 1004.0 |
| 20260506172609 | 12 | 314 | 6.4 | 16.1 | 0.00 | 0.00 | 0.00 | 65 | 1004.0 |
| 20260506172408 | 12 | 312 | 6.4 | 19.3 | 0.00 | 0.00 | 0.00 | 64 | 1004.0 |
| 20260506172209 | 12 | 318 | 4.8 | 19.3 | 0.00 | 0.00 | 0.00 | 64 | 1004.0 |
| 20260506171809 | 13 | 314 | 9.7 | 19.3 | 0.00 | 0.00 | 0.00 | 62 | 1004.0 |
| 20260506171609 | 13 | 320 | 14.5 | 19.3 | 0.00 | 0.00 | 0.00 | 60 | 1004.0 |
| 20260506171409 | 13 | 330 | 8.0 | 22.5 | 0.00 | 0.00 | 0.00 | 60 | 1004.0 |
| 20260506171209 | 13 | 324 | 8.0 | 22.5 | 0.00 | 0.00 | 0.00 | 60 | 1004.0 |
| 20260506171009 | 13 | 325 | 9.7 | 22.5 | 0.00 | 0.00 | 0.00 | 61 | 1004.0 |
| 20260506170808 | 13 | 321 | 8.0 | 22.5 | 0.00 | 0.00 | 0.00 | 62 | 1004.0 |
| 20260506170609 | 13 | 317 | 11.3 | 22.5 | 0.00 | 0.00 | 0.00 | 62 | 1004.0 |
| 20260506170410 | 13 | 306 | 9.7 | 19.3 | 0.00 | 0.00 | 0.00 | 63 | 1004.0 |
| 20260506170208 | 13 | 310 | 9.7 | 17.7 | 0.00 | 0.00 | 0.00 | 63 | 1004.0 |
| 20260506170009 | 13 | 294 | 8.0 | 17.7 | 0.00 | 0.00 | 0.00 | 63 | 1004.0 |
| 20260506165809 | 13 | 298 | 6.4 | 19.3 | 0.00 | 0.00 | 0.00 | 61 | 1004.0 |
| 20260506165608 | 13 | 291 | 6.4 | 19.3 | 0.00 | 0.00 | 0.00 | 60 | 1004.0 |
| 20260506165409 | 13 | 291 | 9.7 | 19.3 | 0.00 | 0.00 | 0.00 | 58 | 1004.0 |
| 20260506165009 | 15 | 305 | 6.4 | 19.3 | 0.00 | 0.00 | 0.00 | 56 | 1004.0 |
| 20260506164808 | 15 | 310 | 9.7 | 19.3 | 0.00 | 0.00 | 0.00 | 54 | 1004.0 |
| 20260506164608 | 15 | 309 | 9.7 | 20.9 | 0.00 | 0.00 | 0.00 | 54 | 1004.0 |
| 20260506164409 | 15 | 310 | 12.9 | 20.9 | 0.00 | 0.00 | 0.00 | 55 | 1004.0 |
| 20260506164209 | 14 | 303 | 11.3 | 22.5 | 0.00 | 0.00 | 0.00 | 56 | 1004.0 |
| 20260506164009 | 14 | 302 | 9.7 | 22.5 | 0.00 | 0.00 | 0.00 | 56 | 1004.0 |
| 20260506163808 | 14 | 305 | 8.0 | 27.4 | 0.00 | 0.00 | 0.00 | 56 | 1004.0 |
| 20260506163609 | 15 | 312 | 11.3 | 27.4 | 0.00 | 0.00 | 0.00 | 56 | 1004.0 |
| 20260506163408 | 14 | 316 | 14.5 | 27.4 | 0.00 | 0.00 | 0.00 | 56 | 1004.0 |
| 20260506163208 | 14 | 318 | 12.9 | 27.4 | 0.00 | 0.00 | 0.00 | 57 | 1004.0 |
| 20260506163010 | 14 | 325 | 11.3 | 27.4 | 0.00 | 0.00 | 0.00 | 56 | 1004.0 |
| 20260506162608 | 14 | 309 | 8.0 | 29.0 | 0.00 | 0.00 | 0.00 | 57 | 1004.0 |
| 20260506162409 | 14 | 310 | 11.3 | 29.0 | 0.00 | 0.00 | 0.00 | 56 | 1004.0 |
| 20260506162209 | 14 | 310 | 9.7 | 29.0 | 0.00 | 0.00 | 0.00 | 57 | 1004.0 |
| 20260506162008 | 15 | 296 | 8.0 | 29.0 | 0.00 | 0.00 | 0.00 | 55 | 1004.0 |
| 20260506161609 | 15 | 293 | 8.0 | 22.5 | 0.00 | 0.00 | 0.00 | 52 | 1004.0 |
| 20260506161209 | 15 | 291 | 16.1 | 29.0 | 0.00 | 0.00 | 0.00 | 52 | 1004.0 |
| 20260506161009 | 15 | 300 | 11.3 | 29.0 | 0.00 | 0.00 | 0.00 | 52 | 1004.0 |
| 20260506160609 | 16 | 299 | 6.4 | 29.0 | 0.00 | 0.00 | 0.00 | 50 | 1004.0 |
| 20260506160409 | 16 | 295 | 20.9 | 29.0 | 0.00 | 0.00 | 0.00 | 51 | 1004.0 |
| 20260506160209 | 16 | 298 | 17.7 | 27.4 | 0.00 | 0.00 | 0.00 | 49 | 1004.0 |
| 20260506160009 | 16 | 295 | 16.1 | 25.7 | 0.00 | 0.00 | 0.00 | 49 | 1004.0 |
| 20260506155810 | 16 | 291 | 11.3 | 25.7 | 0.00 | 0.00 | 0.00 | 49 | 1004.0 |
| 20260506155608 | 16 | 289 | 16.1 | 25.7 | 0.00 | 0.00 | 0.00 | 49 | 1004.0 |
| 20260506155408 | 16 | 291 | 11.3 | 25.7 | 0.00 | 0.00 | 0.00 | 48 | 1004.0 |
| 20260506155208 | 17 | 288 | 17.7 | 25.7 | 0.00 | 0.00 | 0.00 | 46 | 1004.0 |
| 20260506155009 | 17 | 285 | 16.1 | 24.1 | 0.00 | 0.00 | 0.00 | 45 | 1004.0 |
| 20260506154808 | 17 | 283 | 11.3 | 24.1 | 0.00 | 0.00 | 0.00 | 45 | 1004.0 |
| 20260506154408 | 17 | 283 | 8.0 | 24.1 | 0.00 | 0.00 | 0.00 | 45 | 1004.0 |
| 20260506154209 | 17 | 291 | 16.1 | 32.2 | 0.00 | 0.00 | 0.00 | 45 | 1004.0 |
| 20260506154010 | 17 | 293 | 11.3 | 32.2 | 0.00 | 0.00 | 0.00 | 46 | 1004.0 |
| 20260506153810 | 17 | 298 | 6.4 | 32.2 | 0.00 | 0.00 | 0.00 | 47 | 1004.0 |
| 20260506153608 | 17 | 299 | 12.9 | 32.2 | 0.00 | 0.00 | 0.00 | 48 | 1004.0 |
| 20260506153409 | 17 | 297 | 24.1 | 32.2 | 0.00 | 0.00 | 0.00 | 47 | 1004.0 |
| 20260506153209 | 17 | 296 | 19.3 | 29.0 | 0.00 | 0.00 | 0.00 | 47 | 1004.0 |
| 20260506153008 | 18 | 298 | 9.7 | 25.7 | 0.00 | 0.00 | 0.00 | 45 | 1004.0 |
| 20260506152809 | 17 | 299 | 8.0 | 25.7 | 0.00 | 0.00 | 0.00 | 45 | 1004.0 |
| 20260506152609 | 17 | 297 | 11.3 | 27.4 | 0.00 | 0.00 | 0.00 | 46 | 1004.0 |
| 20260506152208 | 17 | 299 | 11.3 | 27.4 | 0.00 | 0.00 | 0.00 | 47 | 1004.0 |
| 20260506152009 | 17 | 302 | 16.1 | 27.4 | 0.00 | 0.00 | 0.00 | 48 | 1004.0 |
| 20260506151809 | 16 | 303 | 17.7 | 27.4 | 0.00 | 0.00 | 0.00 | 47 | 1004.0 |
| 20260506151609 | 18 | 306 | 9.7 | 25.7 | 0.00 | 0.00 | 0.00 | 45 | 1004.0 |
| 20260506151408 | 18 | 309 | 11.3 | 25.7 | 0.00 | 0.00 | 0.00 | 46 | 1004.0 |
| 20260506151209 | 17 | 310 | 16.1 | 25.7 | 0.00 | 0.00 | 0.00 | 46 | 1004.0 |
| 20260506151008 | 18 | 301 | 6.4 | 24.1 | 0.00 | 0.00 | 0.00 | 46 | 1004.0 |
| 20260506150809 | 18 | 289 | 11.3 | 24.1 | 0.00 | 0.00 | 0.00 | 45 | 1004.0 |
| 20260506150609 | 18 | 284 | 12.9 | 24.1 | 0.00 | 0.00 | 0.00 | 46 | 1004.0 |
| 20260506150408 | 18 | 279 | 14.5 | 24.1 | 0.00 | 0.00 | 0.00 | 47 | 1004.0 |
| 20260506150210 | 18 | 276 | 11.3 | 24.1 | 0.00 | 0.00 | 0.00 | 48 | 1004.0 |
| 20260506145609 | 18 | 284 | 12.9 | 22.5 | 0.00 | 0.00 | 0.00 | 48 | 1004.0 |
| 20260506145409 | 17 | 292 | 14.5 | 27.4 | 0.00 | 0.00 | 0.00 | 49 | 1004.0 |
| 20260506145209 | 16 | 293 | 14.5 | 27.4 | 0.00 | 0.00 | 0.00 | 48 | 1004.0 |
| 20260506145008 | 17 | 297 | 14.5 | 27.4 | 0.00 | 0.00 | 0.00 | 47 | 1004.0 |
| 20260506144809 | 17 | 300 | 12.9 | 30.6 | 0.00 | 0.00 | 0.00 | 49 | 1004.0 |
| 20260506144609 | 17 | 298 | 22.5 | 30.6 | 0.00 | 0.00 | 0.00 | 50 | 1004.0 |
| 20260506144408 | 17 | 293 | 12.9 | 30.6 | 0.00 | 0.00 | 0.00 | 50 | 1004.0 |
| 20260506144209 | 17 | 291 | 14.5 | 30.6 | 0.00 | 0.00 | 0.00 | 48 | 1004.0 |
| 20260506144010 | 17 | 287 | 22.5 | 30.6 | 0.00 | 0.00 | 0.00 | 47 | 1004.0 |
| 20260506143809 | 18 | 280 | 12.9 | 27.4 | 0.00 | 0.00 | 0.00 | 46 | 1004.0 |
| 20260506143409 | 18 | 284 | 17.7 | 33.8 | 0.00 | 0.00 | 0.00 | 48 | 1004.0 |
| 20260506143208 | 18 | 287 | 14.5 | 33.8 | 0.00 | 0.00 | 0.00 | 46 | 1004.0 |
| 20260506143008 | 19 | 292 | 14.5 | 33.8 | 0.00 | 0.00 | 0.00 | 45 | 1004.0 |
| 20260506142809 | 18 | 298 | 24.1 | 33.8 | 0.00 | 0.00 | 0.00 | 45 | 1004.0 |
| 20260506142408 | 18 | 299 | 19.3 | 33.8 | 0.00 | 0.00 | 0.00 | 47 | 1004.0 |
| 20260506142208 | 19 | 300 | 12.9 | 33.8 | 0.00 | 0.00 | 0.00 | 46 | 1004.0 |
| 20260506142009 | 18 | 297 | 20.9 | 33.8 | 0.00 | 0.00 | 0.00 | 44 | 1004.0 |
| 20260506141810 | 19 | 291 | 11.3 | 33.8 | 0.00 | 0.00 | 0.00 | 44 | 1004.0 |
| 20260506141608 | 18 | 285 | 12.9 | 33.8 | 0.00 | 0.00 | 0.00 | 45 | 1004.0 |
| 20260506141408 | 18 | 278 | 14.5 | 33.8 | 0.00 | 0.00 | 0.00 | 45 | 1004.0 |
| 20260506141209 | 18 | 273 | 24.1 | 33.8 | 0.00 | 0.00 | 0.00 | 46 | 1004.0 |
| 20260506141009 | 18 | 265 | 20.9 | 27.4 | 0.00 | 0.00 | 0.00 | 47 | 1004.0 |
| 20260506140808 | 18 | 266 | 8.0 | 27.4 | 0.00 | 0.00 | 0.00 | 46 | 1004.0 |
| 20260506140609 | 18 | 268 | 9.7 | 27.4 | 0.00 | 0.00 | 0.00 | 46 | 1004.0 |
| 20260506140410 | 18 | 269 | 12.9 | 27.4 | 0.00 | 0.00 | 0.00 | 46 | 1004.0 |
| 20260506140209 | 17 | 267 | 20.9 | 27.4 | 0.00 | 0.00 | 0.00 | 46 | 1004.0 |
| 20260506140009 | 17 | 265 | 16.1 | 32.2 | 0.00 | 0.00 | 0.00 | 49 | 1004.0 |
| 20260506135810 | 17 | 263 | 14.5 | 32.2 | 0.00 | 0.00 | 0.00 | 49 | 1004.0 |
| 20260506135608 | 18 | 262 | 12.9 | 32.2 | 0.00 | 0.00 | 0.00 | 47 | 1004.0 |
| 20260506135009 | 16 | 271 | 24.1 | 32.2 | 0.00 | 0.00 | 0.00 | 49 | 1004.0 |
| 20260506134808 | 17 | 270 | 17.7 | 30.6 | 0.00 | 0.00 | 0.00 | 45 | 1004.0 |
| 20260506134608 | 18 | 264 | 17.7 | 30.6 | 0.00 | 0.00 | 0.00 | 44 | 1004.0 |
| 20260506134409 | 18 | 263 | 20.9 | 30.6 | 0.00 | 0.00 | 0.00 | 43 | 1003.0 |
| 20260506134010 | 18 | 255 | 17.7 | 30.6 | 0.00 | 0.00 | 0.00 | 41 | 1003.0 |
| 20260506133609 | 20 | 263 | 16.1 | 30.6 | 0.00 | 0.00 | 0.00 | 41 | 1003.0 |
| 20260506133410 | 20 | 261 | 24.1 | 35.4 | 0.00 | 0.00 | 0.00 | 42 | 1003.0 |
| 20260506133209 | 20 | 262 | 11.3 | 35.4 | 0.00 | 0.00 | 0.00 | 40 | 1003.0 |
| 20260506133008 | 19 | 256 | 19.3 | 35.4 | 0.00 | 0.00 | 0.00 | 43 | 1003.0 |
| 20260506132809 | 18 | 255 | 19.3 | 35.4 | 0.00 | 0.00 | 0.00 | 42 | 1004.0 |
| 20260506132609 | 19 | 252 | 20.9 | 35.4 | 0.00 | 0.00 | 0.00 | 43 | 1004.0 |
| 20260506132409 | 19 | 249 | 16.1 | 33.8 | 0.00 | 0.00 | 0.00 | 42 | 1004.0 |
| 20260506132009 | 20 | 239 | 17.7 | 33.8 | 0.00 | 0.00 | 0.00 | 42 | 1004.0 |
| 20260506131808 | 19 | 241 | 22.5 | 33.8 | 0.00 | 0.00 | 0.00 | 43 | 1004.0 |
| 20260506131609 | 19 | 238 | 11.3 | 33.8 | 0.00 | 0.00 | 0.00 | 42 | 1004.0 |
| 20260506131209 | 18 | 243 | 19.3 | 33.8 | 0.00 | 0.00 | 0.00 | 43 | 1004.0 |
| 20260506131008 | 18 | 250 | 20.9 | 33.8 | 0.00 | 0.00 | 0.00 | 44 | 1004.0 |
| 20260506130809 | 19 | 247 | 11.3 | 33.8 | 0.00 | 0.00 | 0.00 | 43 | 1004.0 |
| 20260506130625 | 18 | 242 | 17.7 | 25.7 | 0.00 | 0.00 | 0.00 | 44 | 1004.0 |
| 20260506130410 | 18 | 245 | 17.7 | 25.7 | 0.00 | 0.00 | 0.00 | 45 | 1004.0 |
| 20260506130010 | 17 | 253 | 16.1 | 29.0 | 0.00 | 0.00 | 0.00 | 49 | 1004.0 |
| 20260506125809 | 16 | 252 | 17.7 | 29.0 | 0.00 | 0.00 | 0.00 | 51 | 1004.0 |
| 20260506125608 | 16 | 256 | 19.3 | 29.0 | 0.00 | 0.00 | 0.00 | 51 | 1004.0 |
| 20260506125209 | 18 | 256 | 20.9 | 29.0 | 0.00 | 0.00 | 0.00 | 47 | 1004.0 |
| 20260506125010 | 19 | 250 | 11.3 | 25.7 | 0.00 | 0.00 | 0.00 | 44 | 1004.0 |
| 20260506124809 | 18 | 252 | 17.7 | 25.7 | 0.00 | 0.00 | 0.00 | 47 | 1004.0 |
| 20260506124609 | 17 | 254 | 19.3 | 25.7 | 0.00 | 0.00 | 0.00 | 49 | 1004.0 |
| 20260506124209 | 17 | 249 | 16.1 | 30.6 | 0.00 | 0.00 | 0.00 | 51 | 1004.0 |
| 20260506124009 | 16 | 248 | 17.7 | 30.6 | 0.00 | 0.00 | 0.00 | 52 | 1004.0 |
| 20260506123211 | 17 | 228 | 12.9 | 30.6 | 0.00 | 0.00 | 0.00 | 49 | 1004.0 |
| 20260506123012 | 17 | 227 | 14.5 | 33.8 | 0.00 | 0.00 | 0.00 | 49 | 1004.0 |
| 20260506122808 | 17 | 230 | 14.5 | 33.8 | 0.00 | 0.00 | 0.00 | 49 | 1003.0 |
| 20260506122608 | 17 | 236 | 17.7 | 33.8 | 0.00 | 0.00 | 0.00 | 50 | 1003.0 |
| 20260506122409 | 17 | 241 | 20.9 | 33.8 | 0.00 | 0.00 | 0.00 | 50 | 1003.0 |
| 20260506121808 | 16 | 244 | 16.1 | 25.7 | 0.00 | 0.00 | 0.00 | 52 | 1003.0 |
| 20260506121609 | 17 | 246 | 17.7 | 30.6 | 0.00 | 0.00 | 0.00 | 53 | 1003.0 |
| 20260506121409 | 17 | 250 | 17.7 | 33.8 | 0.00 | 0.00 | 0.00 | 53 | 1003.0 |
| 20260506121008 | 16 | 260 | 17.7 | 33.8 | 0.00 | 0.00 | 0.00 | 54 | 1003.0 |
| 20260506120809 | 16 | 260 | 16.1 | 33.8 | 0.00 | 0.00 | 0.00 | 53 | 1003.0 |
| 20260506120609 | 16 | 256 | 22.5 | 33.8 | 0.00 | 0.00 | 0.00 | 51 | 1003.0 |
| 20260506120409 | 17 | 241 | 11.3 | 33.8 | 0.00 | 0.00 | 0.00 | 51 | 1003.0 |
| 20260506120008 | 17 | 224 | 19.3 | 38.6 | 0.00 | 0.00 | 0.00 | 50 | 1003.0 |
| 20260506115809 | 17 | 221 | 17.7 | 38.6 | 0.00 | 0.00 | 0.00 | 47 | 1003.0 |
| 20260506115609 | 17 | 215 | 25.7 | 38.6 | 0.00 | 0.00 | 0.00 | 47 | 1003.0 |
| 20260506115408 | 17 | 217 | 22.5 | 38.6 | 0.00 | 0.00 | 0.00 | 46 | 1003.0 |
| 20260506115208 | 17 | 223 | 24.1 | 38.6 | 0.00 | 0.00 | 0.00 | 46 | 1003.0 |
| 20260506115009 | 17 | 225 | 29.0 | 38.6 | 0.00 | 0.00 | 0.00 | 45 | 1003.0 |
| 20260506114809 | 17 | 225 | 30.6 | 38.6 | 0.00 | 0.00 | 0.00 | 45 | 1003.0 |
| 20260506114608 | 17 | 232 | 27.4 | 38.6 | 0.00 | 0.00 | 0.00 | 45 | 1003.0 |
| 20260506114409 | 18 | 238 | 20.9 | 37.0 | 0.00 | 0.00 | 0.00 | 44 | 1003.0 |
| 20260506114209 | 18 | 237 | 17.7 | 33.8 | 0.00 | 0.00 | 0.00 | 45 | 1003.0 |
| 20260506114010 | 18 | 236 | 17.7 | 33.8 | 0.00 | 0.00 | 0.00 | 45 | 1003.0 |
| 20260506113608 | 18 | 230 | 24.1 | 33.8 | 0.00 | 0.00 | 0.00 | 45 | 1003.0 |
| 20260506113209 | 18 | 222 | 17.7 | 30.6 | 0.00 | 0.00 | 0.00 | 46 | 1003.0 |
| 20260506112808 | 17 | 220 | 24.1 | 37.0 | 0.00 | 0.00 | 0.00 | 45 | 1003.0 |
| 20260506112409 | 17 | 217 | 25.7 | 37.0 | 0.00 | 0.00 | 0.00 | 47 | 1003.0 |
| 20260506112209 | 17 | 217 | 25.7 | 37.0 | 0.00 | 0.00 | 0.00 | 46 | 1003.0 |
| 20260506112008 | 18 | 225 | 22.5 | 37.0 | 0.00 | 0.00 | 0.00 | 46 | 1003.0 |
| 20260506111409 | 17 | 232 | 17.7 | 37.0 | 0.00 | 0.00 | 0.00 | 50 | 1003.0 |
| 20260506111209 | 16 | 238 | 19.3 | 37.0 | 0.00 | 0.00 | 0.00 | 51 | 1003.0 |
| 20260506111008 | 16 | 237 | 16.1 | 32.2 | 0.00 | 0.00 | 0.00 | 51 | 1003.0 |
| 20260506110810 | 17 | 239 | 16.1 | 24.1 | 0.00 | 0.00 | 0.00 | 51 | 1003.0 |
| 20260506110609 | 17 | 238 | 17.7 | 24.1 | 0.00 | 0.00 | 0.00 | 51 | 1003.0 |
| 20260506110408 | 17 | 233 | 14.5 | 30.6 | 0.00 | 0.00 | 0.00 | 51 | 1003.0 |
| 20260506110009 | 18 | 224 | 14.5 | 30.6 | 0.00 | 0.00 | 0.00 | 48 | 1003.0 |
| 20260506105809 | 17 | 226 | 16.1 | 30.6 | 0.00 | 0.00 | 0.00 | 49 | 1003.0 |
| 20260506105608 | 17 | 225 | 19.3 | 30.6 | 0.00 | 0.00 | 0.00 | 49 | 1003.0 |
| 20260506105409 | 17 | 222 | 11.3 | 30.6 | 0.00 | 0.00 | 0.00 | 50 | 1003.0 |
| 20260506105209 | 17 | 219 | 19.3 | 30.6 | 0.00 | 0.00 | 0.00 | 51 | 1003.0 |
| 20260506105008 | 17 | 215 | 17.7 | 30.6 | 0.00 | 0.00 | 0.00 | 51 | 1003.0 |
| 20260506104812 | 17 | 213 | 19.3 | 32.2 | 0.00 | 0.00 | 0.00 | 52 | 1003.0 |
| 20260506104609 | 16 | 214 | 19.3 | 32.2 | 0.00 | 0.00 | 0.00 | 52 | 1003.0 |
| 20260506104408 | 16 | 217 | 17.7 | 32.2 | 0.00 | 0.00 | 0.00 | 53 | 1003.0 |
| 20260506104009 | 16 | 222 | 20.9 | 32.2 | 0.00 | 0.00 | 0.00 | 53 | 1003.0 |
| 20260506103809 | 16 | 225 | 20.9 | 32.2 | 0.00 | 0.00 | 0.00 | 54 | 1003.0 |
| 20260506103609 | 16 | 222 | 17.7 | 33.8 | 0.00 | 0.00 | 0.00 | 52 | 1003.0 |
| 20260506103208 | 16 | 216 | 22.5 | 33.8 | 0.00 | 0.00 | 0.00 | 52 | 1003.0 |
| 20260506103009 | 16 | 213 | 20.9 | 33.8 | 0.00 | 0.00 | 0.00 | 53 | 1003.0 |
| 20260506102809 | 16 | 209 | 20.9 | 35.4 | 0.00 | 0.00 | 0.00 | 53 | 1003.0 |
| 20260506102608 | 16 | 209 | 16.1 | 35.4 | 0.00 | 0.00 | 0.00 | 52 | 1003.0 |
| 20260506102410 | 16 | 211 | 24.1 | 35.4 | 0.00 | 0.00 | 0.00 | 54 | 1003.0 |
| 20260506102209 | 16 | 215 | 24.1 | 35.4 | 0.00 | 0.00 | 0.00 | 52 | 1003.0 |
| 20260506102008 | 16 | 221 | 11.3 | 35.4 | 0.00 | 0.00 | 0.00 | 52 | 1003.0 |
| 20260506101809 | 16 | 223 | 11.3 | 25.7 | 0.00 | 0.00 | 0.00 | 54 | 1003.0 |
| 20260506101609 | 16 | 222 | 17.7 | 25.7 | 0.00 | 0.00 | 0.00 | 56 | 1003.0 |
| 20260506101408 | 16 | 222 | 16.1 | 25.7 | 0.00 | 0.00 | 0.00 | 58 | 1003.0 |
| 20260506101209 | 16 | 219 | 17.7 | 25.7 | 0.00 | 0.00 | 0.00 | 58 | 1003.0 |
| 20260506101008 | 15 | 215 | 12.9 | 25.7 | 0.00 | 0.00 | 0.00 | 58 | 1003.0 |
| 20260506100609 | 15 | 222 | 17.7 | 24.1 | 0.00 | 0.00 | 0.00 | 59 | 1003.0 |
| 20260506100410 | 16 | 224 | 16.1 | 24.1 | 0.00 | 0.00 | 0.00 | 60 | 1003.0 |
| 20260506100209 | 16 | 226 | 12.9 | 24.1 | 0.00 | 0.00 | 0.00 | 60 | 1003.0 |
| 20260506100009 | 15 | 227 | 17.7 | 24.1 | 0.00 | 0.00 | 0.00 | 60 | 1003.0 |
| 20260506095808 | 15 | 223 | 16.1 | 24.1 | 0.00 | 0.00 | 0.00 | 61 | 1003.0 |
| 20260506095609 | 15 | 216 | 14.5 | 24.1 | 0.00 | 0.00 | 0.00 | 60 | 1003.0 |
| 20260506095209 | 15 | 207 | 11.3 | 24.1 | 0.00 | 0.00 | 0.00 | 62 | 1003.0 |
| 20260506094609 | 15 | 208 | 16.1 | 24.1 | 0.00 | 0.00 | 0.00 | 65 | 1003.0 |
| 20260506094410 | 15 | 209 | 16.1 | 24.1 | 0.00 | 0.00 | 0.00 | 66 | 1002.0 |
| 20260506094210 | 15 | 211 | 17.7 | 24.1 | 0.00 | 0.00 | 0.00 | 66 | 1002.0 |
| 20260506094008 | 15 | 209 | 16.1 | 24.1 | 0.00 | 0.00 | 0.00 | 65 | 1002.0 |
| 20260506093809 | 15 | 207 | 14.5 | 24.1 | 0.00 | 0.00 | 0.00 | 66 | 1002.0 |
| 20260506093609 | 14 | 209 | 16.1 | 22.5 | 0.00 | 0.00 | 0.00 | 67 | 1002.0 |
| 20260506093008 | 14 | 213 | 14.5 | 27.4 | 0.00 | 0.00 | 0.00 | 67 | 1002.0 |
| 20260506092809 | 14 | 216 | 12.9 | 32.2 | 0.00 | 0.00 | 0.00 | 67 | 1002.0 |
| 20260506092408 | 15 | 209 | 17.7 | 32.2 | 0.00 | 0.00 | 0.00 | 66 | 1002.0 |
| 20260506092209 | 15 | 209 | 17.7 | 32.2 | 0.00 | 0.00 | 0.00 | 67 | 1002.0 |
| 20260506091809 | 14 | 203 | 16.1 | 25.7 | 0.00 | 0.00 | 0.00 | 67 | 1002.0 |
| 20260506091608 | 14 | 208 | 11.3 | 24.1 | 0.00 | 0.00 | 0.00 | 65 | 1002.0 |
| 20260506091209 | 15 | 212 | 11.3 | 20.9 | 0.00 | 0.00 | 0.00 | 64 | 1002.0 |
| 20260506091008 | 15 | 211 | 12.9 | 20.9 | 0.00 | 0.00 | 0.00 | 65 | 1002.0 |
| 20260506090808 | 15 | 209 | 12.9 | 22.5 | 0.00 | 0.00 | 0.00 | 66 | 1002.0 |
| 20260506090608 | 15 | 208 | 14.5 | 22.5 | 0.00 | 0.00 | 0.00 | 67 | 1002.0 |
| 20260506090009 | 14 | 211 | 16.1 | 24.1 | 0.00 | 0.00 | 0.00 | 69 | 1002.0 |
| 20260506085808 | 14 | 211 | 12.9 | 24.1 | 0.00 | 0.00 | 0.00 | 70 | 1002.0 |
| 20260506085608 | 13 | 209 | 14.5 | 24.1 | 0.00 | 0.00 | 0.00 | 71 | 1002.0 |
| 20260506085409 | 14 | 209 | 19.3 | 24.1 | 0.00 | 0.00 | 0.00 | 73 | 1002.0 |
| 20260506085208 | 13 | 204 | 14.5 | 22.5 | 0.00 | 0.00 | 0.00 | 74 | 1002.0 |
| 20260506085008 | 13 | 194 | 12.9 | 22.5 | 0.00 | 0.00 | 0.00 | 76 | 1002.0 |
| 20260506084609 | 13 | 191 | 9.7 | 20.9 | 0.00 | 0.00 | 0.00 | 76 | 1002.0 |
| 20260506084208 | 13 | 190 | 11.3 | 24.1 | 0.00 | 0.00 | 0.00 | 76 | 1002.0 |
| 20260506084008 | 13 | 191 | 14.5 | 24.1 | 0.00 | 0.00 | 0.00 | 74 | 1002.0 |
| 20260506083810 | 13 | 190 | 17.7 | 24.1 | 0.00 | 0.00 | 0.00 | 73 | 1002.0 |
| 20260506083209 | 14 | 182 | 9.7 | 20.9 | 0.00 | 0.00 | 0.00 | 71 | 1002.0 |
| 20260506083009 | 14 | 185 | 12.9 | 22.5 | 0.00 | 0.00 | 0.00 | 71 | 1002.0 |
| 20260506082808 | 15 | 188 | 14.5 | 22.5 | 0.00 | 0.00 | 0.00 | 70 | 1002.0 |
| 20260506082608 | 15 | 187 | 11.3 | 22.5 | 0.00 | 0.00 | 0.00 | 72 | 1002.0 |
| 20260506082408 | 14 | 188 | 12.9 | 22.5 | 0.00 | 0.00 | 0.00 | 73 | 1002.0 |
| 20260506082209 | 13 | 195 | 17.7 | 24.1 | 0.00 | 0.00 | 0.00 | 75 | 1002.0 |
| 20260506082009 | 13 | 197 | 11.3 | 27.4 | 0.00 | 0.00 | 0.00 | 74 | 1002.0 |
| 20260506081808 | 13 | 191 | 12.9 | 27.4 | 0.00 | 0.00 | 0.00 | 74 | 1002.0 |
| 20260506081608 | 13 | 190 | 14.5 | 27.4 | 0.00 | 0.00 | 0.00 | 75 | 1002.0 |
| 20260506081408 | 13 | 190 | 16.1 | 27.4 | 0.00 | 0.00 | 0.00 | 75 | 1002.0 |
| 20260506081008 | 15 | 170 | 11.3 | 19.3 | 0.00 | 0.00 | 0.00 | 73 | 1002.0 |
| 20260506080808 | 14 | 175 | 14.5 | 20.9 | 0.00 | 0.00 | 0.00 | 73 | 1002.0 |
| 20260506080609 | 14 | 172 | 11.3 | 20.9 | 0.00 | 0.00 | 0.00 | 73 | 1002.0 |
| 20260506080408 | 13 | 172 | 14.5 | 20.9 | 0.00 | 0.00 | 0.00 | 74 | 1002.0 |
| 20260506080209 | 13 | 173 | 12.9 | 20.9 | 0.00 | 0.00 | 0.00 | 76 | 1002.0 |
| 20260506073407 | 11 | 156 | 9.7 | 17.7 | 0.00 | 0.00 | 0.00 | 84 | 1002.0 |
| 20260506072808 | 11 | 151 | 14.5 | 20.9 | 0.00 | 0.00 | 0.00 | 84 | 1002.0 |
| 20260506072608 | 10 | 152 | 14.5 | 20.9 | 0.00 | 0.00 | 0.00 | 84 | 1002.0 |
| 20260506072408 | 10 | 151 | 12.9 | 20.9 | 0.00 | 0.00 | 0.00 | 84 | 1002.0 |
| 20260506072008 | 10 | 151 | 14.5 | 20.9 | 0.00 | 0.00 | 0.00 | 85 | 1002.0 |
| 20260506071808 | 10 | 152 | 11.3 | 19.3 | 0.00 | 0.00 | 0.00 | 85 | 1002.0 |
| 20260506071408 | 10 | 153 | 11.3 | 20.9 | 0.00 | 0.00 | 0.00 | 85 | 1002.0 |
| 20260506071208 | 10 | 153 | 14.5 | 20.9 | 0.00 | 0.00 | 0.00 | 85 | 1002.0 |
| 20260506071008 | 10 | 150 | 8.0 | 20.9 | 0.00 | 0.00 | 0.00 | 85 | 1002.0 |
| 20260506070808 | 10 | 147 | 12.9 | 20.9 | 0.00 | 0.00 | 0.00 | 86 | 1002.0 |
| 20260506070607 | 10 | 147 | 12.9 | 20.9 | 0.00 | 0.00 | 0.00 | 86 | 1002.0 |
| 20260506070408 | 10 | 147 | 11.3 | 16.1 | 0.00 | 0.00 | 0.00 | 86 | 1002.0 |
| 20260506062407 | 10 | 137 | 8.0 | 12.9 | 0.00 | 0.00 | 0.00 | 88 | 1002.0 |
| 20260506062208 | 9 | 135 | 9.7 | 12.9 | 0.00 | 0.00 | 0.00 | 88 | 1002.0 |
| 20260506062007 | 9 | 135 | 8.0 | 12.9 | 0.00 | 0.00 | 0.00 | 88 | 1002.0 |
| 20260506061807 | 9 | 129 | 11.3 | 14.5 | 0.00 | 0.00 | 0.00 | 88 | 1002.0 |
| 20260506061608 | 9 | 130 | 4.8 | 14.5 | 0.00 | 0.00 | 0.00 | 88 | 1002.0 |
| 20260506061408 | 9 | 127 | 8.0 | 14.5 | 0.00 | 0.00 | 0.00 | 88 | 1002.0 |
| 20260506061207 | 9 | 127 | 8.0 | 14.5 | 0.00 | 0.00 | 0.00 | 88 | 1002.0 |
| 20260506061007 | 9 | 122 | 11.3 | 14.5 | 0.00 | 0.00 | 0.00 | 89 | 1002.0 |
| 20260506060808 | 9 | 125 | 6.4 | 14.5 | 0.00 | 0.00 | 0.00 | 89 | 1002.0 |
| 20260506060607 | 9 | 126 | 11.3 | 14.5 | 0.00 | 0.00 | 0.00 | 89 | 1002.0 |
| 20260506060407 | 9 | 124 | 12.9 | 16.1 | 0.00 | 0.00 | 0.00 | 89 | 1002.0 |
| 20260506060208 | 9 | 123 | 11.3 | 17.7 | 0.00 | 0.00 | 0.00 | 89 | 1002.0 |
| 20260506051407 | 8 | 96 | 9.7 | 12.9 | 0.00 | 0.00 | 0.00 | 90 | 1003.0 |
| 20260506051207 | 8 | 93 | 8.0 | 12.9 | 0.00 | 0.00 | 0.00 | 90 | 1003.0 |
| 20260506051007 | 8 | 89 | 8.0 | 12.9 | 0.00 | 0.00 | 0.00 | 90 | 1003.0 |
| 20260506050807 | 8 | 84 | 6.4 | 11.3 | 0.00 | 0.00 | 0.00 | 90 | 1003.0 |
| 20260506050607 | 8 | 87 | 6.4 | 11.3 | 0.00 | 0.00 | 0.00 | 90 | 1003.0 |
| 20260506050407 | 8 | 90 | 8.0 | 11.3 | 0.00 | 0.00 | 0.00 | 90 | 1003.0 |
| 20260506050207 | 8 | 83 | 6.4 | 14.5 | 0.00 | 0.00 | 0.00 | 90 | 1003.0 |
| 20260506045007 | 8 | 69 | 11.3 | 12.9 | 0.00 | 0.00 | 0.00 | 90 | 1003.0 |
| 20260506044607 | 8 | 67 | 6.4 | 11.3 | 0.00 | 0.00 | 0.00 | 90 | 1003.0 |
| 20260506044407 | 8 | 65 | 8.0 | 11.3 | 0.00 | 0.00 | 0.00 | 90 | 1003.0 |
| 20260506044207 | 8 | 78 | 6.4 | 11.3 | 0.00 | 0.00 | 0.00 | 90 | 1003.0 |
| 20260506044007 | 8 | 87 | 4.8 | 11.3 | 0.00 | 0.00 | 0.00 | 90 | 1003.0 |
| 20260506043807 | 8 | 86 | 0.0 | 11.3 | 0.00 | 0.00 | 0.00 | 90 | 1003.0 |
| 20260506043607 | 8 | 81 | 4.8 | 11.3 | 0.00 | 0.00 | 0.00 | 90 | 1003.0 |
| 20260506043406 | 8 | 82 | 0.0 | 14.5 | 0.00 | 0.00 | 0.00 | 90 | 1003.0 |
| 20260506042807 | 8 | 64 | 4.8 | 17.7 | 0.00 | 0.00 | 0.00 | 90 | 1003.0 |
| 20260506042607 | 8 | 64 | 9.7 | 17.7 | 0.00 | 0.00 | 0.00 | 90 | 1003.0 |
| 20260506042406 | 8 | 62 | 9.7 | 17.7 | 0.00 | 0.00 | 0.00 | 90 | 1003.0 |
| 20260506042007 | 8 | 50 | 11.3 | 16.1 | 0.00 | 0.00 | 0.00 | 90 | 1003.0 |
| 20260506041806 | 8 | 57 | 11.3 | 17.7 | 0.00 | 0.00 | 0.00 | 90 | 1003.0 |
| 20260506041606 | 8 | 53 | 6.4 | 17.7 | 0.00 | 0.00 | 0.00 | 90 | 1003.0 |
| 20260506041208 | 8 | 46 | 0.0 | 17.7 | 0.00 | 0.00 | 0.00 | 90 | 1003.0 |
| 20260506041007 | 8 | 41 | 9.7 | 17.7 | 0.00 | 0.00 | 0.00 | 90 | 1003.0 |
| 20260506040810 | 8 | 33 | 9.7 | 17.7 | 0.00 | 0.00 | 0.00 | 90 | 1003.0 |
| 20260506040606 | 8 | 27 | 8.0 | 17.7 | 0.00 | 0.00 | 0.00 | 90 | 1003.0 |
| 20260506040407 | 8 | 32 | 6.4 | 17.7 | 0.00 | 0.00 | 0.00 | 90 | 1003.0 |
| 20260506040207 | 8 | 25 | 11.3 | 17.7 | 0.00 | 0.00 | 0.00 | 90 | 1003.0 |
| 20260506040006 | 8 | 28 | 6.4 | 14.5 | 0.00 | 0.00 | 0.00 | 90 | 1003.0 |
| 20260506035808 | 8 | 33 | 9.7 | 19.3 | 0.00 | 0.00 | 0.00 | 90 | 1002.0 |